Regional Weather Roundup
Issued by NWS

Home | Current Version | Previous Version | Graphics & Text | Print | Product List | Glossary On
Versions: 1 2 3 4 5 6 7 8 9 10 11 12 13 14 15 16 17 18 19 20 21 22 23 24 25 26 27 28 29 30 31 32 33 34 35 36 37 38 39 40 41 42 43 44 45 46 47 48 49 50
000
ASUS45 KBOI 031910
RWRID

IDAHO REGIONAL WEATHER ROUNDUP
NATIONAL WEATHER SERVICE BOISE ID
100 PM MDT THU SEP 03 2015

NOTE: "FAIR" INDICATES FEW OR NO CLOUDS BELOW 12000 FEET
WITH NO SIGNIFICANT WEATHER AND/OR OBSTRUCTIONS TO VISIBILITY

IDZ012-014-032000-
SOUTHWEST IDAHO


CITY           SKY/WX    TMP DP  RH WIND       PRES   REMARKS
BOISE          CLOUDY    63  43  48 NW16      29.93S
CALDWELL       CLOUDY    61  37  41 NW12      29.98S
MOUNTAIN HOME  MOSUNNY   69  40  35 NW17G25   29.90F
$$

IDZ016-017-032000-
SOUTHCENTRAL IDAHO


CITY           SKY/WX    TMP DP  RH WIND       PRES   REMARKS
BURLEY         SUNNY     69  44  40 W8G17     29.90F
JEROME         SUNNY     67  42  40 W13       29.93F
TWIN FALLS     SUNNY     71  40  32 W13G21    29.92F
$$

IDZ019>023-032000-
SOUTHEAST IDAHO


CITY           SKY/WX    TMP DP  RH WIND       PRES   REMARKS
IDAHO FALLS    MOSUNNY   74  40  29 SW12      29.90F
POCATELLO      MOSUNNY   75  40  28 W16       29.91F
REXBURG        SUNNY     75  39  27 SW12      29.90F
$$

IDZ006-010-011-018-031-032-032000-
CENTRAL IDAHO MOUNTAINS


CITY           SKY/WX    TMP DP  RH WIND       PRES   REMARKS
MCCALL         CLOUDY    46  41  82 E7        29.97F
HAILEY         PTSUNNY   68  37  32 SW12      29.95
STANLEY          N/A     62  31  31 W8        29.96F
SALMON         CLOUDY    64  45  48 CALM      29.85F
CHALLIS        CLOUDY    68  46  45 NE5       29.84F
$$

IDZ002-004-006-007-026-032000-
NORTHERN IDAHO


CITY           SKY/WX    TMP DP  RH WIND       PRES   REMARKS
LEWISTON       PTSUNNY   60  46  59 E10       29.98S
LOWELL           N/A     57  53  86 CALM      29.97S
COEUR D`ALENE  SUNNY     61  37  41 S9        29.95F
MULLAN PASS    PTSUNNY   42  38  85 N5        29.98F
$$



USA.gov is the U.S. government's official web portal to all federal, state and local government web resources and services.